Location: Trebic
(49.2170°N, 15.8830°E)
Time: 13:42:21
(UTC+02:00)

Explorer 7 - All Passes

Search period start: 23 July 2019 00:00
Search period end: 02 August 2019 00:00
Orbit: 485 x 680 km, 50.3° (Epoch: 23 July)

Date Brightness Start Highest point End Pass type
(mag) Time Alt. Az. Time Alt. Az. Time Alt. Az.
23 Jul - 01:38:38 10° W 01:42:24 79° N 01:46:16 10° E visible
23 Jul - 03:19:09 10° W 03:22:48 45° SSW 03:26:35 10° SE visible
23 Jul - 05:01:15 10° WSW 05:02:37 12° SW 05:04:01 10° SSW daylight
23 Jul - 20:45:31 10° SSE 20:46:45 11° SE 20:47:58 10° ESE daylight
23 Jul - 22:22:53 10° SW 22:26:32 46° SSE 22:30:08 10° E visible
24 Jul - 00:03:09 10° W 00:06:55 78° N 00:10:42 10° E visible
24 Jul - 01:43:44 10° WNW 01:47:30 90° NNE 01:51:22 10° ESE visible
24 Jul - 03:24:20 10° W 03:27:45 32° SSW 03:31:17 10° SSE visible
24 Jul - 20:48:57 10° S 20:51:33 17° SE 20:54:07 10° E daylight
24 Jul - 22:27:46 10° WSW 22:31:32 63° SSE 22:35:15 10° ENE visible
25 Jul - 00:08:16 10° W 00:12:02 74° N 00:15:49 10° E visible
25 Jul - 01:48:49 10° WNW 01:52:34 74° SSW 01:56:25 10° ESE visible
25 Jul - 03:29:39 10° W 03:32:40 22° SW 03:35:45 10° SSE visible
25 Jul - 20:53:12 10° SSW 20:56:26 26° SE 20:59:36 10° E daylight
25 Jul - 22:32:46 10° WSW 22:36:35 81° SSE 22:40:21 10° ENE visible
26 Jul - 00:13:23 10° W 00:17:09 75° N 00:20:56 10° E visible
26 Jul - 01:53:55 10° WNW 01:57:36 56° SSW 02:01:23 10° SE visible
26 Jul - 03:35:18 10° WSW 03:37:32 15° SW 03:39:47 10° S night (unlit)
26 Jul - 20:57:46 10° SW 21:01:21 37° SSE 21:04:51 10° E daylight
26 Jul - 22:37:51 10° W 22:41:40 84° NNW 22:45:26 10° ENE visible
27 Jul - 00:18:29 10° W 00:22:15 82° N 00:26:03 10° E visible
27 Jul - 01:59:03 10° W 02:02:35 40° SSW 02:06:12 10° SE visible
27 Jul - 19:24:27 10° SSE 19:26:28 14° SE 19:28:25 10° ESE daylight
27 Jul - 21:02:34 10° SW 21:06:20 52° SSE 21:10:00 10° ENE daylight
27 Jul - 22:42:58 10° W 22:46:46 76° N 22:50:32 10° E visible
28 Jul - 00:23:34 10° WNW 00:27:20 85° SSW 00:31:08 10° ESE visible
28 Jul - 02:04:17 10° W 02:07:32 28° SW 02:10:50 10° SSE visible
28 Jul - 19:28:20 10° S 19:31:18 20° SE 19:34:11 10° E daylight
28 Jul - 21:07:30 10° WSW 21:11:21 70° SSE 21:15:06 10° ENE daylight
28 Jul - 22:48:05 10° W 22:51:53 73° N 22:55:38 10° E visible
29 Jul - 00:28:39 10° WNW 00:32:24 68° SSW 00:36:10 10° ESE visible
29 Jul - 02:09:41 10° W 02:12:24 19° SW 02:15:10 10° S visible
29 Jul - 19:32:43 10° SSW 19:36:11 30° SSE 19:39:33 10° E daylight
29 Jul - 21:12:32 10° WSW 21:16:25 87° SSE 21:20:11 10° ENE visible
29 Jul - 22:53:11 10° W 22:57:00 76° N 23:00:45 10° E visible
30 Jul - 00:33:46 10° W 00:37:24 50° SSW 00:41:05 10° SE visible
30 Jul - 02:15:34 10° WSW 02:17:14 13° SW 02:18:55 10° SSW night (unlit)
30 Jul - 18:00:37 10° SE 18:01:21 10° SE 18:02:05 10° SE daylight
30 Jul - 19:37:22 10° SW 19:41:08 42° SSE 19:44:45 10° E daylight
30 Jul - 21:17:37 10° W 21:21:30 81° N 21:25:17 10° E visible
30 Jul - 22:58:17 10° WNW 23:02:06 85° NNE 23:05:52 10° E visible
31 Jul - 00:38:55 10° W 00:42:23 35° SSW 00:45:51 10° SE visible
31 Jul - 18:03:35 10° S 18:06:09 16° SE 18:08:39 10° E daylight
31 Jul - 19:42:13 10° SW 19:46:07 58° SSE 19:49:53 10° ENE daylight
31 Jul - 21:22:44 10° W 21:26:36 75° N 21:30:23 10° E visible
31 Jul - 23:03:22 10° WNW 23:07:10 80° SSW 23:10:56 10° ESE visible
01 Aug - 00:44:12 10° W 00:47:17 24° SW 00:50:23 10° SSE visible
01 Aug - 18:07:43 10° SSW 18:11:01 24° SE 18:14:13 10° E daylight
01 Aug - 19:47:11 10° WSW 19:51:10 76° SSE 19:54:58 10° ENE daylight
01 Aug - 21:27:51 10° W 21:31:43 74° N 21:35:29 10° E visible
01 Aug - 23:08:28 10° WNW 23:12:13 61° SSW 23:15:55 10° ESE visible
